Weather History for EIKN - April, 2013

Change the Weather History Date:

Wednesday, April 3, 2013

  Actual Average Record
Temperature  
Mean Temperature 38 °F -  
Max Temperature 47 °F - - ()
Min Temperature 30 °F - - ()
Degree Days  
Heating Degree Days 27    
Moisture  
Dew Point 27 °F    
Average Humidity 60    
Maximum Humidity 87    
Minimum Humidity 32    
Precipitation  
Precipitation 0.00 in - - ()
Sea Level Pressure  
Sea Level Pressure 30.18 in    
Wind  
Wind Speed 10 mph ()    
Max Wind Speed 15 mph    
Max Gust Speed 25 mph    
Visibility 6.7 miles    
Events      
T = Trace of Precipitation, MM = Missing Value Source: Averaged Metar Reports

Daily Weather History Graph

Daily Weather History Graph

Search for Another Location

Airport or City:

Trip Planner

Search our weather history database for the weather conditions in past years. The results will help you decide how hot, cold, wet, or windy it might be!

Date:

Astronomy

Apr. 03, 2013 Rise Set
Actual Time 7:03 AM IST 8:15 PM IST
Civil Twilight 6:26 AM IST 8:51 PM IST
Nautical Twilight 5:42 AM IST 9:35 PM IST
Astronomical Twilight 4:54 AM IST 10:24 PM IST
Moon 3:31 AM IST (4/3) 12:14 PM IST (4/3)
Length of Visible Light 14h 24m
Length of Day
13h 11m
Waning Gibbous, 47% of the Moon is Illuminated
Apr 3
Waning Gibbous
Apr 10
New
Apr 18
First Quarter
Apr 25
Full
May 2
Last Quarter

Hourly Weather History & Observations

Time (IST) Temp. Windchill Dew Point Humidity Pressure Visibility Wind Dir Wind Speed Gust Speed Precip Events Conditions
1:00 AM 32 °F - 27 °F 74% 30.19 in - East 8.9 mph - -  
6:30 AM 32.0 °F 24.2 °F 26.6 °F 80% 30.15 in 6.2 mi East 9.2 mph - N/A   Partly Cloudy
7:00 AM 31 °F - 27 °F 77% 30.20 in 16 mi East 11.2 mph - -   Scattered Clouds
7:00 AM 32.0 °F 23.6 °F 26.6 °F 80% 30.15 in 6.2 mi East 10.4 mph - N/A   Partly Cloudy
7:30 AM 30.2 °F 21.3 °F 26.6 °F 86% 30.15 in 6.2 mi East 10.4 mph - N/A   Partly Cloudy
8:00 AM 32.0 °F 24.2 °F 28.4 °F 87% 30.15 in 6.2 mi East 9.2 mph - N/A   Partly Cloudy
8:30 AM 33.8 °F 25.3 °F 28.4 °F 81% 30.18 in 6.2 mi East 11.5 mph - N/A   Partly Cloudy
9:00 AM 35.6 °F 27.1 °F 30.2 °F 81% 30.18 in 6.2 mi East 12.7 mph - N/A   Partly Cloudy
9:30 AM 37.4 °F 28.9 °F 30.2 °F 75% 30.18 in 6.2 mi East 13.8 mph - N/A   Partly Cloudy
10:00 AM 37.4 °F 28.9 °F 30.2 °F 75% 30.18 in 6.2 mi East 13.8 mph - N/A   Partly Cloudy
10:30 AM 39.2 °F 30.8 °F 30.2 °F 70% 30.18 in 6.2 mi East 15.0 mph - N/A   Partly Cloudy
11:00 AM 37.4 °F 28.9 °F 28.4 °F 70% 30.18 in 6.2 mi East 13.8 mph - N/A   Scattered Clouds
11:30 AM 41.0 °F 34.7 °F 28.4 °F 61% 30.18 in 6.2 mi East 10.4 mph - N/A   Scattered Clouds
12:00 PM 41.0 °F 33.9 °F 28.4 °F 61% 30.18 in 6.2 mi East 12.7 mph - N/A   Partly Cloudy
12:30 PM 42.8 °F 35.8 °F 26.6 °F 53% 30.18 in 6.2 mi East 13.8 mph - N/A   Partly Cloudy
1:00 PM 43 °F - 27 °F 40% 30.22 in 31 mi East 13.4 mph - -   Scattered Clouds
1:00 PM 42.8 °F 35.8 °F 26.6 °F 53% 30.18 in 6.2 mi East 13.8 mph 25.3 mph N/A   Partly Cloudy
1:30 PM 44.6 °F 37.8 °F 24.8 °F 46% 30.18 in 6.2 mi East 15.0 mph - N/A   Partly Cloudy
2:00 PM 44.6 °F 38.8 °F 24.8 °F 46% 30.18 in 6.2 mi East 11.5 mph - N/A   Partly Cloudy
2:30 PM 46.4 °F 41.1 °F 26.6 °F 46% 30.18 in 6.2 mi ESE 11.5 mph - N/A   Partly Cloudy
3:00 PM 46.4 °F 41.1 °F 24.8 °F 43% 30.18 in 6.2 mi East 11.5 mph 23.0 mph N/A   Partly Cloudy
3:30 PM 46.4 °F 41.5 °F 26.6 °F 46% 30.18 in 6.2 mi East 10.4 mph - N/A   Partly Cloudy
4:00 PM 46.4 °F 41.5 °F 24.8 °F 43% 30.18 in 6.2 mi ESE 10.4 mph - N/A   Partly Cloudy
4:30 PM 46.4 °F 41.1 °F 24.8 °F 43% 30.15 in - East 11.5 mph - N/A   Clear
5:00 PM 46.4 °F 40.7 °F 23.0 °F 40% 30.15 in - East 12.7 mph - N/A   Clear
5:30 PM 46.4 °F 41.9 °F 23.0 °F 40% 30.15 in - East 9.2 mph - N/A   Clear
6:00 PM 46.4 °F 40.7 °F 23.0 °F 40% 30.15 in - East 12.7 mph - N/A   Clear
7:00 PM 44 °F - 24 °F 32% 30.21 in 31 mi ESE 11.2 mph - -   Clear